User: anonymous   Login
Location: Plum
(40.5000°N, 79.7500°W)
Time: 19:16:36
(UTC-05:00)
Language:

MOZ.5/SAFIR/RUBIN 5/SL-8 - Orbit

View from above orbital plane
View from above orbital plane
View from above satellite
View from above satellite

Ground track
Ground track

The orbit data is extracted from the following two-line orbital elements,

1 28898U 05043G   16036.46868859  .00000190  00000-0  48668-4 0  9993
2 28898  97.8622 203.8530 0018873 315.8987  44.0708 14.60046462547204
Epoch (UTC): 05 February 2016 11:14:54
Eccentricity: 0.0018873
inclination: 97.8622°
perigee height: 679 km
apogee height: 706 km
right ascension of ascending node: 203.8530°
argument of perigee: 315.8987°
revolutions per day: 14.60046462
mean anomaly at epoch: 44.0708°
orbit number at epoch: 54720

The dashed part of the orbit path shows where the satellite is in the earth's shadow,  

DLR